Kosmos-1803

operational
NORAD ID: 17177 Int'l Des: 1986-094 Owner: VTS Country: SU
LEOCIRCULARPOLAR

About Kosmos-1803

Description loading...

Live Position

Loading 3D Globe...

Upcoming Passes

Altitude History

Altitude vs Time

uPlot chart will show altitude changes over time

Two-Line Element Set

1 17177U 86094A 26015.72791450 .00000003 00000-0 -48781-4 0 9995
2 17177 82.6060 103.8996 0004106 67.2884 51.6535 12.41549458773037
Epoch: Jan 15, 2026 • Age: 9 hours

Current Status

Altitude 1505.6 km
Velocity 7.11 km/s
Sub-Earth Point -15.49°S, 50.2°W
Launch Date Dec 2, 1986
Age 39.1 years
Type other

Technical Details

Classification Payload
Mass 1552.00 kg
Dry Mass 1552.00 kg
Total Mass 1552.00 kg
Length 5.80 m
Diameter 2.40 m
Span 17.80 m
Shape Cyl + 2 Pan + Ant
Manufacturer NPOPM
Bus Type KAUR-1 11F666
Phase Status In Orbit
Owner/State VTS/SU

Large Constellations

Loading constellations...